Weather History for Windom, MN

Change the Weather History Date:

Monday, January 27, 2014

  Actual Average Record
Temperature  
Mean Temperature -10 °F -  
Max Temperature -5 °F 22 °F 42 °F (1973)
Min Temperature -14 °F 2 °F -38 °F (2011)
Degree Days  
Heating Degree Days 74    
Moisture  
Dew Point -16 °F    
Average Humidity 73    
Maximum Humidity 84    
Minimum Humidity 65    
Precipitation  
Precipitation 0.00 in - - ()
Sea Level Pressure  
Sea Level Pressure 30.33 in    
Wind  
Wind Speed 17 mph (WNW)    
Max Wind Speed 26 mph    
Max Gust Speed 33 mph    
Visibility 7 miles    
Events Snow    
Averages and records for this station are not official NWS values.
T = Trace of Precipitation, MM = Missing Value Source: NWS Daily Summary

Daily Weather History Graph

Daily Weather History Graph

Search for Another Location

Airport:

Trip Planner

Search our weather history database for the weather conditions in past years. The results will help you decide how hot, cold, wet, or windy it might be!

Date:

Astronomy

Jan. 27, 2014 Rise Set
Actual Time 7:42 AM CST 5:24 PM CST
Civil Twilight 7:11 AM CST 5:55 PM CST
Nautical Twilight 6:36 AM CST 6:30 PM CST
Astronomical Twilight 6:02 AM CST 7:04 PM CST
Moon 4:26 AM CST (1/27) 2:09 PM CST (1/27)
Length of Visible Light 10h 43m
Length of Day
9h 41m
Waning Crescent, 14% of the Moon is Illuminated
Jan 27
Waning Crescent
Jan 30
New
Feb 6
First Quarter
Feb 14
Full
Feb 22
Last Quarter

Hourly Weather History & Observations

Time (CST) Temp. Windchill Dew Point Humidity Pressure Visibility Wind Dir Wind Speed Gust Speed Precip Events Conditions
12:12 AM -5.8 °F -29.9 °F -9.4 °F 84% 30.17 in 1.0 mi NW 20.7 mph 32.2 mph N/A Snow Light Snow
12:33 AM -5.8 °F -30.5 °F -9.4 °F 84% 30.17 in 1.0 mi NW 21.9 mph 33.4 mph N/A Snow Light Snow
12:53 AM -7.6 °F -34.8 °F -11.2 °F 84% 30.18 in 1.2 mi NW 26.5 mph 32.2 mph N/A Snow Light Snow
1:12 AM -7.6 °F -33.9 °F -13.0 °F 77% 30.19 in 3.0 mi WNW 24.2 mph - N/A   Haze
1:33 AM -7.6 °F -34.8 °F -11.2 °F 84% 30.20 in 0.5 mi NW 26.5 mph 32.2 mph N/A Snow Snow
1:53 AM -7.6 °F -33.9 °F -11.2 °F 84% 30.21 in 0.5 mi NW 24.2 mph 29.9 mph N/A Snow Snow
2:12 AM -7.6 °F -33.4 °F -13.0 °F 77% 30.21 in 1.2 mi NW 23.0 mph 32.2 mph N/A Snow Light Snow
2:33 AM -7.6 °F -29.8 °F -13.0 °F 77% 30.22 in 2.5 mi NW 16.1 mph 25.3 mph N/A   Haze
2:52 AM -7.6 °F -31.7 °F -14.8 °F 71% 30.22 in 1.8 mi WNW 19.6 mph 24.2 mph N/A   Haze
3:13 AM -7.6 °F -30.5 °F -13.0 °F 77% 30.23 in 1.8 mi NW 17.3 mph 23.0 mph N/A   Haze
3:33 AM -7.6 °F -30.5 °F -13.0 °F 77% 30.24 in 1.8 mi NW 17.3 mph - N/A   Haze
3:52 AM -7.6 °F -33.9 °F -11.2 °F 84% 30.24 in 1.0 mi NW 24.2 mph 28.8 mph N/A Snow Light Snow
4:13 AM -9.4 °F -35.8 °F -14.8 °F 77% 30.25 in 1.0 mi NW 23.0 mph - N/A Snow Light Snow
4:33 AM -9.4 °F -32.8 °F -14.8 °F 77% 30.25 in 2.5 mi WNW 17.3 mph 26.5 mph N/A   Haze
4:52 AM -9.4 °F -36.3 °F -14.8 °F 77% 30.25 in 1.0 mi NW 24.2 mph 28.8 mph N/A Snow Light Snow
5:13 AM -9.4 °F -34.7 °F -16.6 °F 71% 30.26 in 4.0 mi NW 20.7 mph - N/A   Haze
5:33 AM -11.2 °F -36.4 °F -16.6 °F 77% 30.27 in 10.0 mi NW 19.6 mph 24.2 mph N/A   Scattered Clouds
5:52 AM -9.4 °F -34.7 °F -14.8 °F 77% 30.27 in 1.5 mi NW 20.7 mph - N/A   Haze
6:13 AM -11.2 °F -36.4 °F -16.6 °F 77% 30.28 in 4.0 mi WNW 19.6 mph 25.3 mph N/A   Haze
6:33 AM -11.2 °F -32.9 °F -16.6 °F 77% 30.29 in 3.0 mi WNW 13.8 mph 18.4 mph N/A   Overcast
6:52 AM -11.2 °F -36.4 °F -16.6 °F 77% 30.30 in 4.0 mi WNW 19.6 mph 23.0 mph N/A   Mostly Cloudy
7:13 AM -11.2 °F -33.7 °F -18.4 °F 70% 30.31 in 10.0 mi WNW 15.0 mph 19.6 mph N/A   Mostly Cloudy
7:32 AM -11.2 °F -34.4 °F -18.4 °F 70% 30.31 in 4.0 mi WNW 16.1 mph 25.3 mph N/A   Haze
7:53 AM -11.2 °F -35.2 °F -18.4 °F 70% 30.33 in 7.0 mi WNW 17.3 mph - N/A   Mostly Cloudy
8:13 AM -11.2 °F -38.2 °F -18.4 °F 70% 30.34 in 1.5 mi NW 23.0 mph - N/A   Haze
8:32 AM -13.0 °F -40.6 °F -18.4 °F 77% 30.34 in 2.5 mi NW 23.0 mph 28.8 mph N/A   Haze
8:53 AM -11.2 °F -38.2 °F -18.4 °F 70% 30.35 in 1.0 mi NW 23.0 mph 27.6 mph N/A   Haze
9:12 AM -11.2 °F -36.4 °F -18.4 °F 70% 30.36 in 2.5 mi NW 19.6 mph - N/A   Haze
9:33 AM -11.2 °F -34.4 °F -18.4 °F 70% 30.37 in 2.5 mi NW 16.1 mph 23.0 mph N/A   Haze
9:53 AM -11.2 °F -34.4 °F -18.4 °F 70% 30.38 in 2.0 mi NW 16.1 mph 21.9 mph N/A   Haze
10:12 AM -11.2 °F -33.7 °F -18.4 °F 70% 30.38 in 2.5 mi NW 15.0 mph - N/A   Haze
10:33 AM -11.2 °F -35.2 °F -18.4 °F 70% 30.39 in 7.0 mi NW 17.3 mph - N/A   Scattered Clouds
10:53 AM -9.4 °F -33.5 °F -18.4 °F 65% 30.40 in 7.0 mi WNW 18.4 mph 23.0 mph N/A   Scattered Clouds
11:12 AM -9.4 °F -31.4 °F -18.4 °F 65% 30.41 in 7.0 mi WNW 15.0 mph - N/A   Scattered Clouds
11:32 AM -9.4 °F -32.8 °F -18.4 °F 65% 30.41 in 10.0 mi WNW 17.3 mph - N/A   Scattered Clouds
11:53 AM -9.4 °F -31.4 °F -16.6 °F 71% 30.41 in 10.0 mi WNW 15.0 mph - N/A   Scattered Clouds
12:12 PM -7.6 °F -31.1 °F -16.6 °F 65% 30.40 in 10.0 mi WNW 18.4 mph - N/A   Scattered Clouds
12:32 PM -7.6 °F -28.3 °F -16.6 °F 65% 30.40 in 10.0 mi WNW 13.8 mph 18.4 mph N/A   Clear
12:52 PM -7.6 °F -29.1 °F -16.6 °F 65% 30.39 in 10.0 mi WNW 15.0 mph - N/A   Clear
1:12 PM -7.6 °F -29.1 °F -14.8 °F 71% 30.39 in 10.0 mi WNW 15.0 mph 20.7 mph N/A   Scattered Clouds
1:33 PM -5.8 °F -26.0 °F -14.8 °F 65% 30.38 in 10.0 mi NW 13.8 mph - N/A   Clear
1:52 PM -5.8 °F -28.2 °F -14.8 °F 65% 30.38 in 10.0 mi NW 17.3 mph - N/A   Clear
2:12 PM -5.8 °F -28.2 °F -14.8 °F 65% 30.38 in 10.0 mi WNW 17.3 mph - N/A   Clear
2:33 PM -5.8 °F -24.4 °F -13.0 °F 71% 30.38 in 7.0 mi WNW 11.5 mph - N/A   Clear
2:52 PM -5.8 °F -26.0 °F -13.0 °F 71% 30.38 in 10.0 mi WNW 13.8 mph - N/A   Clear
3:12 PM -5.8 °F -26.0 °F -13.0 °F 71% 30.38 in 7.0 mi WNW 13.8 mph - N/A   Scattered Clouds
3:33 PM -5.8 °F -25.2 °F -13.0 °F 71% 30.38 in 10.0 mi WNW 12.7 mph - N/A   Clear
3:52 PM -5.8 °F -26.8 °F -14.8 °F 65% 30.37 in 10.0 mi WNW 15.0 mph - N/A   Clear
4:12 PM -5.8 °F -26.0 °F -14.8 °F 65% 30.37 in 10.0 mi WNW 13.8 mph - N/A   Clear
4:33 PM -5.8 °F -24.4 °F -13.0 °F 71% 30.37 in 10.0 mi WNW 11.5 mph - N/A   Clear
4:52 PM -5.8 °F -25.2 °F -14.8 °F 65% 30.38 in 10.0 mi West 12.7 mph - N/A   Clear
5:12 PM -5.8 °F -25.2 °F -14.8 °F 65% 30.38 in 10.0 mi WNW 12.7 mph - N/A   Clear
5:33 PM -7.6 °F -24.6 °F -14.8 °F 71% 30.38 in 10.0 mi West 9.2 mph - N/A   Clear
5:52 PM -7.6 °F -23.4 °F -14.8 °F 71% 30.38 in 10.0 mi West 8.1 mph - N/A   Clear
6:12 PM -7.6 °F -20.6 °F -14.8 °F 71% 30.39 in 10.0 mi West 5.8 mph - N/A   Clear
6:33 PM -7.6 °F -22.1 °F -14.8 °F 71% 30.38 in 10.0 mi West 6.9 mph - N/A   Clear
6:52 PM -9.4 °F -24.3 °F -14.8 °F 77% 30.39 in 10.0 mi West 6.9 mph - N/A   Clear
7:12 PM -9.4 °F -22.7 °F -14.8 °F 77% 30.39 in 10.0 mi West 5.8 mph - N/A   Clear
7:33 PM -9.4 °F -25.6 °F -16.6 °F 71% 30.39 in 10.0 mi West 8.1 mph - N/A   Clear
7:52 PM -9.4 °F -25.6 °F -16.6 °F 71% 30.39 in 10.0 mi West 8.1 mph - N/A   Clear
8:12 PM -11.2 °F -26.4 °F -16.6 °F 77% 30.39 in 10.0 mi West 6.9 mph - N/A   Clear
8:33 PM -9.4 °F -20.9 °F -16.6 °F 71% 30.38 in 10.0 mi West 4.6 mph - N/A   Clear
8:52 PM -11.2 °F - -16.6 °F 77% 30.38 in 10.0 mi Calm Calm - N/A   Clear
9:12 PM -11.2 °F -24.8 °F -18.4 °F 70% 30.38 in 10.0 mi West 5.8 mph - N/A   Clear
9:33 PM -11.2 °F -23.0 °F -16.6 °F 77% 30.37 in 10.0 mi WSW 4.6 mph - N/A   Clear
9:52 PM -11.2 °F -24.8 °F -16.6 °F 77% 30.37 in 10.0 mi WSW 5.8 mph - N/A   Clear
10:12 PM -11.2 °F -24.8 °F -18.4 °F 70% 30.38 in 10.0 mi SW 5.8 mph - N/A   Clear
10:33 PM -13.0 °F - -18.4 °F 77% 30.37 in 10.0 mi Calm Calm - N/A   Clear
10:52 PM -13.0 °F -25.1 °F -18.4 °F 77% 30.36 in 10.0 mi West 4.6 mph - N/A   Clear
11:13 PM -14.8 °F -29.1 °F -20.2 °F 77% 30.36 in 10.0 mi West 5.8 mph - N/A   Clear
11:33 PM -14.8 °F - -18.4 °F 84% 30.35 in 10.0 mi Calm Calm - N/A   Clear
11:52 PM -13.0 °F - -18.4 °F 77% 30.35 in 10.0 mi Calm Calm - N/A   Clear